Time,TemperatureF,DewpointF,PressureIn,WindDirection,WindDirectionDegrees,WindSpeedMPH,WindSpeedGustMPH,Humidity,HourlyPrecipIn,Conditions,Clouds,dailyrainin,SoftwareType,DateUTC
2013-06-24 00:02:00,59.8,33.5,29.47,SSW,196,0.0,0.0,37,0.00,,,0.00,Wunderground v.1.15,2013-06-24 06:02:00,
2013-06-24 00:07:00,59.5,34.5,29.48,SSW,196,0.0,0.0,39,0.00,,,0.00,Wunderground v.1.15,2013-06-24 06:07:00,
2013-06-24 00:12:00,59.2,34.2,29.48,SSW,196,0.0,0.0,39,0.00,,,0.00,Wunderground v.1.15,2013-06-24 06:12:00,
2013-06-24 00:17:00,59.0,34.1,29.48,SSW,196,0.0,0.0,39,0.00,,,0.00,Wunderground v.1.15,2013-06-24 06:17:00,
2013-06-24 00:22:00,58.9,34.0,29.46,SSW,196,0.0,0.0,39,0.00,,,0.00,Wunderground v.1.15,2013-06-24 06:22:00,
2013-06-24 00:27:00,58.9,38.7,29.46,SSW,196,0.0,0.0,47,0.00,,,0.00,Wunderground v.1.15,2013-06-24 06:27:00,
2013-06-24 00:32:00,58.6,39.5,29.46,SSW,196,0.0,0.0,49,0.00,,,0.00,Wunderground v.1.15,2013-06-24 06:32:00,
2013-06-24 00:37:00,58.4,39.3,29.46,SSW,196,0.0,0.0,49,0.00,,,0.00,Wunderground v.1.15,2013-06-24 06:37:00,
2013-06-24 00:43:00,58.0,40.5,29.46,SSW,196,0.0,0.0,52,0.00,,,0.00,Wunderground v.1.15,2013-06-24 06:43:00,
2013-06-24 00:48:00,57.6,40.6,29.48,SSW,196,0.0,0.0,53,0.00,,,0.00,Wunderground v.1.15,2013-06-24 06:48:00,
2013-06-24 00:53:00,57.5,40.5,29.48,SSW,196,0.0,0.0,53,0.00,,,0.00,Wunderground v.1.15,2013-06-24 06:53:00,
2013-06-24 00:59:00,57.2,40.7,29.48,SSW,196,0.0,0.0,54,0.00,,,0.00,Wunderground v.1.15,2013-06-24 06:59:00,
2013-06-24 01:05:00,56.9,41.4,29.49,SSW,196,0.0,0.0,56,0.00,,,0.00,Wunderground v.1.15,2013-06-24 07:05:00,
2013-06-24 01:10:00,56.7,41.6,29.49,SSW,196,0.0,0.0,57,0.00,,,0.00,Wunderground v.1.15,2013-06-24 07:10:00,
2013-06-24 01:16:00,56.6,42.0,29.49,SSW,196,0.0,4.0,58,0.00,,,0.00,Wunderground v.1.15,2013-06-24 07:16:00,
2013-06-24 01:22:00,56.6,41.5,29.48,SSW,196,0.0,0.0,57,0.00,,,0.00,Wunderground v.1.15,2013-06-24 07:22:00,
2013-06-24 01:28:00,56.5,41.4,29.48,SSW,196,1.0,1.0,57,0.00,,,0.00,Wunderground v.1.15,2013-06-24 07:28:00,
2013-06-24 01:33:00,56.5,41.9,29.48,SSW,196,0.0,0.0,58,0.00,,,0.00,Wunderground v.1.15,2013-06-24 07:33:00,
2013-06-24 01:39:00,56.3,42.1,29.48,SSW,196,0.0,0.0,59,0.00,,,0.00,Wunderground v.1.15,2013-06-24 07:39:00,
2013-06-24 01:44:00,56.2,41.6,29.48,SSW,196,1.0,1.0,58,0.00,,,0.00,Wunderground v.1.15,2013-06-24 07:44:00,
2013-06-24 01:50:00,56.5,41.4,29.49,SSW,196,0.0,0.0,57,0.00,,,0.00,Wunderground v.1.15,2013-06-24 07:50:00,
2013-06-24 01:56:00,56.5,40.5,29.49,SSW,196,1.0,1.0,55,0.00,,,0.00,Wunderground v.1.15,2013-06-24 07:56:00,
2013-06-24 02:01:00,56.5,38.6,29.49,SW,223,2.0,2.0,51,0.00,,,0.00,Wunderground v.1.15,2013-06-24 08:01:00,
2013-06-24 02:07:00,56.5,38.1,29.48,SW,233,6.0,6.0,50,0.00,,,0.00,Wunderground v.1.15,2013-06-24 08:07:00,
2013-06-24 02:12:00,56.6,40.1,29.48,WSW,247,0.0,4.0,54,0.00,,,0.00,Wunderground v.1.15,2013-06-24 08:12:00,
2013-06-24 02:17:00,56.7,40.2,29.46,WSW,248,6.0,6.0,54,0.00,,,0.00,Wunderground v.1.15,2013-06-24 08:17:00,
2013-06-24 02:23:00,56.7,41.2,29.46,WSW,250,0.0,2.0,56,0.00,,,0.00,Wunderground v.1.15,2013-06-24 08:23:00,
2013-06-24 02:28:00,56.7,41.2,29.46,WSW,250,0.0,2.0,56,0.00,,,0.00,Wunderground v.1.15,2013-06-24 08:28:00,
2013-06-24 02:33:00,56.5,41.4,29.45,WSW,250,0.0,0.0,57,0.00,,,0.00,Wunderground v.1.15,2013-06-24 08:33:00,
2013-06-24 02:38:00,56.3,40.8,29.45,WSW,250,0.0,0.0,56,0.00,,,0.00,Wunderground v.1.15,2013-06-24 08:38:00,
2013-06-24 02:43:00,56.0,39.6,29.45,WSW,250,0.0,0.0,54,0.00,,,0.00,Wunderground v.1.15,2013-06-24 08:43:00,
2013-06-24 02:48:00,55.9,39.0,29.46,WSW,250,0.0,0.0,53,0.00,,,0.00,Wunderground v.1.15,2013-06-24 08:48:00,
2013-06-24 02:53:00,55.7,39.3,29.46,WSW,250,0.0,0.0,54,0.00,,,0.00,Wunderground v.1.15,2013-06-24 08:53:00,
2013-06-24 02:58:00,55.6,39.2,29.46,WSW,250,0.0,0.0,54,0.00,,,0.00,Wunderground v.1.15,2013-06-24 08:58:00,
2013-06-24 03:03:00,55.4,39.0,29.46,WSW,250,0.0,0.0,54,0.00,,,0.00,Wunderground v.1.15,2013-06-24 09:03:00,
2013-06-24 03:09:00,55.1,39.2,29.46,WSW,250,0.0,0.0,55,0.00,,,0.00,Wunderground v.1.15,2013-06-24 09:09:00,
2013-06-24 03:14:00,54.8,39.4,29.46,WSW,250,0.0,0.0,56,0.00,,,0.00,Wunderground v.1.15,2013-06-24 09:14:00,
2013-06-24 03:21:00,54.5,39.1,29.44,WSW,250,0.0,0.0,56,0.00,,,0.00,Wunderground v.1.15,2013-06-24 09:21:00,
2013-06-24 03:26:00,54.2,38.8,29.44,WSW,250,0.0,0.0,56,0.00,,,0.00,Wunderground v.1.15,2013-06-24 09:26:00,
2013-06-24 03:31:00,53.8,39.8,29.44,WSW,250,0.0,0.0,59,0.00,,,0.00,Wunderground v.1.15,2013-06-24 09:31:00,
2013-06-24 03:37:00,53.5,39.9,29.45,WSW,250,0.0,0.0,60,0.00,,,0.00,Wunderground v.1.15,2013-06-24 09:37:00,
2013-06-24 03:42:00,53.3,40.2,29.45,WSW,250,0.0,0.0,61,0.00,,,0.00,Wunderground v.1.15,2013-06-24 09:42:00,
2013-06-24 03:48:00,53.1,40.0,29.44,WSW,250,0.0,0.0,61,0.00,,,0.00,Wunderground v.1.15,2013-06-24 09:48:00,
2013-06-24 03:54:00,52.6,39.5,29.44,WSW,250,0.0,0.0,61,0.00,,,0.00,Wunderground v.1.15,2013-06-24 09:54:00,
2013-06-24 03:59:00,52.2,39.1,29.44,WSW,250,0.0,0.0,61,0.00,,,0.00,Wunderground v.1.15,2013-06-24 09:59:00,
2013-06-24 04:04:00,51.9,38.9,29.47,WSW,250,0.0,0.0,61,0.00,,,0.00,Wunderground v.1.15,2013-06-24 10:04:00,
2013-06-24 04:10:00,51.1,36.8,29.47,WSW,250,0.0,0.0,58,0.00,,,0.00,Wunderground v.1.15,2013-06-24 10:10:00,
2013-06-24 04:15:00,50.8,36.5,29.47,WSW,250,0.0,0.0,58,0.00,,,0.00,Wunderground v.1.15,2013-06-24 10:15:00,
2013-06-24 04:20:00,50.7,36.9,29.47,WSW,250,0.0,0.0,59,0.00,,,0.00,Wunderground v.1.15,2013-06-24 10:20:00,
2013-06-24 04:25:00,50.5,37.1,29.47,WSW,250,0.0,0.0,60,0.00,,,0.00,Wunderground v.1.15,2013-06-24 10:25:00,
2013-06-24 04:31:00,50.2,37.3,29.47,WSW,250,0.0,0.0,61,0.00,,,0.00,Wunderground v.1.15,2013-06-24 10:31:00,
2013-06-24 04:37:00,50.5,38.4,29.48,WSW,250,0.0,0.0,63,0.00,,,0.00,Wunderground v.1.15,2013-06-24 10:37:00,
2013-06-24 04:42:00,50.5,38.4,29.48,WSW,250,0.0,0.0,63,0.00,,,0.00,Wunderground v.1.15,2013-06-24 10:42:00,
2013-06-24 04:47:00,50.2,38.5,29.48,WSW,250,0.0,0.0,64,0.00,,,0.00,Wunderground v.1.15,2013-06-24 10:47:00,
2013-06-24 04:52:00,50.2,38.5,29.48,WSW,250,0.0,0.0,64,0.00,,,0.00,Wunderground v.1.15,2013-06-24 10:52:00,
2013-06-24 04:57:00,50.1,38.4,29.48,WSW,250,0.0,0.0,64,0.00,,,0.00,Wunderground v.1.15,2013-06-24 10:57:00,
2013-06-24 05:02:00,49.9,38.6,29.48,WSW,250,0.0,0.0,65,0.00,,,0.00,Wunderground v.1.15,2013-06-24 11:02:00,
2013-06-24 05:08:00,49.8,38.1,29.48,WSW,250,0.0,0.0,64,0.00,,,0.00,Wunderground v.1.15,2013-06-24 11:08:00,
2013-06-24 05:13:00,49.8,38.1,29.48,WSW,250,0.0,0.0,64,0.00,,,0.00,Wunderground v.1.15,2013-06-24 11:13:00,
2013-06-24 05:19:00,49.8,38.5,29.66,WSW,250,0.0,0.0,65,0.00,,,0.00,Wunderground v.1.15,2013-06-24 11:19:00,
2013-06-24 05:24:00,49.8,38.5,29.66,WSW,250,0.0,0.0,65,0.00,,,0.00,Wunderground v.1.15,2013-06-24 11:24:00,
2013-06-24 05:29:00,49.9,38.2,29.66,WSW,250,0.0,0.0,64,0.00,,,0.00,Wunderground v.1.15,2013-06-24 11:29:00,
2013-06-24 05:34:00,49.9,38.6,29.66,WSW,250,0.0,0.0,65,0.00,,,0.00,Wunderground v.1.15,2013-06-24 11:34:00,
2013-06-24 05:39:00,50.2,38.9,29.66,WSW,250,0.0,0.0,65,0.00,,,0.00,Wunderground v.1.15,2013-06-24 11:39:00,
2013-06-24 05:46:00,50.5,39.2,29.66,WSW,250,0.0,0.0,65,0.00,,,0.00,Wunderground v.1.15,2013-06-24 11:46:00,
2013-06-24 05:51:00,50.5,39.2,29.64,WSW,250,0.0,0.0,65,0.00,,,0.00,Wunderground v.1.15,2013-06-24 11:51:00,
2013-06-24 05:57:00,50.5,39.2,29.64,WSW,250,0.0,0.0,65,0.00,,,0.00,Wunderground v.1.15,2013-06-24 11:57:00,
2013-06-24 06:02:00,51.0,39.6,29.64,WSW,250,0.0,0.0,65,0.00,,,0.00,Wunderground v.1.15,2013-06-24 12:02:00,
2013-06-24 06:07:00,50.8,39.5,29.64,WSW,250,0.0,0.0,65,0.00,,,0.00,Wunderground v.1.15,2013-06-24 12:07:00,
2013-06-24 06:12:00,51.0,39.6,29.64,WSW,250,0.0,0.0,65,0.00,,,0.00,Wunderground v.1.15,2013-06-24 12:12:00,
2013-06-24 06:17:00,51.0,39.6,29.48,WSW,250,0.0,0.0,65,0.00,,,0.00,Wunderground v.1.15,2013-06-24 12:17:00,
2013-06-24 06:23:00,51.1,39.7,29.48,WSW,250,0.0,0.0,65,0.00,,,0.00,Wunderground v.1.15,2013-06-24 12:23:00,
2013-06-24 06:28:00,51.3,40.3,29.48,WSW,250,0.0,0.0,66,0.00,,,0.00,Wunderground v.1.15,2013-06-24 12:28:00,
2013-06-24 06:33:00,51.9,40.9,29.47,WSW,250,0.0,0.0,66,0.00,,,0.00,Wunderground v.1.15,2013-06-24 12:33:00,
2013-06-24 06:39:00,52.6,41.6,29.47,WSW,250,0.0,0.0,66,0.00,,,0.00,Wunderground v.1.15,2013-06-24 12:39:00,
2013-06-24 06:44:00,53.2,42.1,29.47,WSW,250,0.0,0.0,66,0.00,,,0.00,Wunderground v.1.15,2013-06-24 12:44:00,
2013-06-24 06:50:00,53.5,42.4,29.47,WSW,250,0.0,2.0,66,0.00,,,0.00,Wunderground v.1.15,2013-06-24 12:50:00,
2013-06-24 06:55:00,53.8,43.1,29.47,WSW,250,0.0,0.0,67,0.00,,,0.00,Wunderground v.1.15,2013-06-24 12:55:00,
2013-06-24 07:00:00,54.1,43.4,29.47,WSW,250,0.0,0.0,67,0.00,,,0.00,Wunderground v.1.15,2013-06-24 13:00:00,
2013-06-24 07:05:00,54.7,42.3,29.46,WSW,250,0.0,0.0,63,0.00,,,0.00,Wunderground v.1.15,2013-06-24 13:05:00,
2013-06-24 07:11:00,55.6,42.4,29.46,WSW,250,0.0,0.0,61,0.00,,,0.00,Wunderground v.1.15,2013-06-24 13:11:00,
2013-06-24 07:16:00,56.3,42.1,29.46,WSW,250,0.0,0.0,59,0.00,,,0.00,Wunderground v.1.15,2013-06-24 13:16:00,
2013-06-24 07:21:00,57.6,42.5,29.47,WSW,250,0.0,0.0,57,0.00,,,0.00,Wunderground v.1.15,2013-06-24 13:21:00,
2013-06-24 07:27:00,59.3,41.7,29.47,WSW,250,0.0,0.0,52,0.00,,,0.00,Wunderground v.1.15,2013-06-24 13:27:00,
2013-06-24 07:32:00,59.5,41.3,29.47,WSW,250,0.0,0.0,51,0.00,,,0.00,Wunderground v.1.15,2013-06-24 13:32:00,
2013-06-24 07:37:00,61.0,42.2,29.45,WSW,250,0.0,0.0,50,0.00,,,0.00,Wunderground v.1.15,2013-06-24 13:37:00,
2013-06-24 07:42:00,62.0,42.6,29.45,WSW,250,0.0,0.0,49,0.00,,,0.00,Wunderground v.1.15,2013-06-24 13:42:00,
2013-06-24 07:48:00,62.4,43.0,29.44,WSW,250,0.0,0.0,49,0.00,,,0.00,Wunderground v.1.15,2013-06-24 13:48:00,
2013-06-24 07:53:00,63.4,42.8,29.44,WSW,250,0.0,0.0,47,0.00,,,0.00,Wunderground v.1.15,2013-06-24 13:53:00,
2013-06-24 07:58:00,63.4,42.8,29.44,WSW,250,0.0,0.0,47,0.00,,,0.00,Wunderground v.1.15,2013-06-24 13:58:00,
2013-06-24 08:05:00,64.3,43.6,29.43,WSW,250,0.0,0.0,47,0.00,,,0.00,Wunderground v.1.15,2013-06-24 14:05:00,
2013-06-24 08:10:00,64.3,43.6,29.43,WSW,250,0.0,0.0,47,0.00,,,0.00,Wunderground v.1.15,2013-06-24 14:10:00,
2013-06-24 08:15:00,65.3,42.8,29.43,WSW,250,0.0,0.0,44,0.00,,,0.00,Wunderground v.1.15,2013-06-24 14:15:00,
2013-06-24 08:20:00,66.3,43.7,29.46,WSW,250,0.0,0.0,44,0.00,,,0.00,Wunderground v.1.15,2013-06-24 14:20:00,
2013-06-24 08:26:00,66.9,44.3,29.46,WSW,250,0.0,1.0,44,0.00,,,0.00,Wunderground v.1.15,2013-06-24 14:26:00,
2013-06-24 08:31:00,67.4,44.7,29.46,WSW,250,0.0,0.0,44,0.00,,,0.00,Wunderground v.1.15,2013-06-24 14:31:00,
2013-06-24 08:36:00,67.9,44.0,29.45,WSW,250,0.0,1.0,42,0.00,,,0.00,Wunderground v.1.15,2013-06-24 14:36:00,
2013-06-24 08:41:00,67.9,42.7,29.45,WSW,250,0.0,0.0,40,0.00,,,0.00,Wunderground v.1.15,2013-06-24 14:41:00,
2013-06-24 08:46:00,68.6,43.9,29.45,West,265,0.0,1.0,41,0.00,,,0.00,Wunderground v.1.15,2013-06-24 14:46:00,
2013-06-24 08:52:00,69.3,43.3,29.45,West,265,0.0,0.0,39,0.00,,,0.00,Wunderground v.1.15,2013-06-24 14:52:00,
2013-06-24 08:57:00,69.6,44.2,29.45,West,265,0.0,0.0,40,0.00,,,0.00,Wunderground v.1.15,2013-06-24 14:57:00,
2013-06-24 09:02:00,70.3,44.2,29.44,West,272,1.0,4.0,39,0.00,,,0.00,Wunderground v.1.15,2013-06-24 15:02:00,
2013-06-24 09:07:00,70.4,42.9,29.44,West,272,0.0,4.0,37,0.00,,,0.00,Wunderground v.1.15,2013-06-24 15:07:00,
2013-06-24 09:12:00,70.6,42.3,29.44,West,272,0.0,0.0,36,0.00,,,0.00,Wunderground v.1.15,2013-06-24 15:12:00,
2013-06-24 09:17:00,70.8,41.0,29.45,West,272,0.0,2.0,34,0.00,,,0.00,Wunderground v.1.15,2013-06-24 15:17:00,
2013-06-24 09:22:00,70.6,40.9,29.45,West,272,0.0,0.0,34,0.00,,,0.00,Wunderground v.1.15,2013-06-24 15:22:00,
2013-06-24 09:28:00,70.9,41.1,29.45,West,272,0.0,0.0,34,0.00,,,0.00,Wunderground v.1.15,2013-06-24 15:28:00,
2013-06-24 09:33:00,71.6,41.7,29.44,West,272,0.0,0.0,34,0.00,,,0.00,Wunderground v.1.15,2013-06-24 15:33:00,
2013-06-24 09:38:00,72.0,39.7,29.44,West,272,0.0,0.0,31,0.00,,,0.00,Wunderground v.1.15,2013-06-24 15:38:00,
2013-06-24 09:43:00,72.0,39.7,29.44,West,272,0.0,0.0,31,0.00,,,0.00,Wunderground v.1.15,2013-06-24 15:43:00,
2013-06-24 09:48:00,72.0,38.9,29.44,West,272,0.0,0.0,30,0.00,,,0.00,Wunderground v.1.15,2013-06-24 15:48:00,
2013-06-24 09:54:00,74.2,40.8,29.44,West,272,0.0,0.0,30,0.00,,,0.00,Wunderground v.1.15,2013-06-24 15:54:00,
2013-06-24 09:59:00,74.9,39.6,29.44,West,272,0.0,0.0,28,0.00,,,0.00,Wunderground v.1.15,2013-06-24 15:59:00,
2013-06-24 10:05:00,75.6,38.3,29.42,West,272,0.0,2.0,26,0.00,,,0.00,Wunderground v.1.15,2013-06-24 16:05:00,
2013-06-24 10:10:00,76.3,38.9,29.42,West,272,0.0,2.0,26,0.00,,,0.00,Wunderground v.1.15,2013-06-24 16:10:00,
2013-06-24 10:15:00,77.0,37.4,29.42,West,272,0.0,0.0,24,0.00,,,0.00,Wunderground v.1.15,2013-06-24 16:15:00,
2013-06-24 10:20:00,77.7,39.1,29.43,West,272,0.0,0.0,25,0.00,,,0.00,Wunderground v.1.15,2013-06-24 16:20:00,
2013-06-24 10:25:00,78.3,37.4,29.43,West,272,0.0,1.0,23,0.00,,,0.00,Wunderground v.1.15,2013-06-24 16:25:00,
2013-06-24 10:30:00,78.6,38.8,29.43,West,272,0.0,0.0,24,0.00,,,0.00,Wunderground v.1.15,2013-06-24 16:30:00,
2013-06-24 10:35:00,79.0,36.9,29.42,West,274,0.0,4.0,22,0.00,,,0.00,Wunderground v.1.15,2013-06-24 16:35:00,
2013-06-24 10:40:00,79.2,38.2,29.42,West,274,0.0,0.0,23,0.00,,,0.00,Wunderground v.1.15,2013-06-24 16:40:00,
2013-06-24 10:46:00,79.8,36.4,29.42,West,274,0.0,0.0,21,0.00,,,0.00,Wunderground v.1.15,2013-06-24 16:46:00,
2013-06-24 10:51:00,80.5,38.1,29.41,WNW,285,0.0,4.0,22,0.00,,,0.00,Wunderground v.1.15,2013-06-24 16:51:00,
2013-06-24 10:56:00,80.9,37.3,29.41,WNW,289,0.0,4.0,21,0.00,,,0.00,Wunderground v.1.15,2013-06-24 16:56:00,
2013-06-24 11:01:00,81.6,36.6,29.41,NW,319,1.0,6.0,20,0.00,,,0.00,Wunderground v.1.15,2013-06-24 17:01:00,
2013-06-24 11:06:00,81.8,36.8,29.40,NW,319,0.0,6.0,20,0.00,,,0.00,Wunderground v.1.15,2013-06-24 17:06:00,
2013-06-24 11:11:00,82.2,37.1,29.40,NW,319,0.0,1.0,20,0.00,,,0.00,Wunderground v.1.15,2013-06-24 17:11:00,
2013-06-24 11:16:00,83.0,37.8,29.40,NW,319,0.0,1.0,20,0.00,,,0.00,Wunderground v.1.15,2013-06-24 17:16:00,
2013-06-24 11:21:00,84.0,38.6,29.41,NW,323,1.0,2.0,20,0.00,,,0.00,Wunderground v.1.15,2013-06-24 17:21:00,
2013-06-24 11:26:00,84.1,38.7,29.41,NNW,330,0.0,2.0,20,0.00,,,0.00,Wunderground v.1.15,2013-06-24 17:26:00,
2013-06-24 11:32:00,84.3,38.9,29.41,NNW,330,0.0,1.0,20,0.00,,,0.00,Wunderground v.1.15,2013-06-24 17:32:00,
2013-06-24 11:37:00,84.7,35.0,29.39,NNW,330,0.0,2.0,17,0.00,,,0.00,Wunderground v.1.15,2013-06-24 17:37:00,
2013-06-24 11:42:00,85.1,33.8,29.39,NNW,336,0.0,2.0,16,0.00,,,0.00,Wunderground v.1.15,2013-06-24 17:42:00,
2013-06-24 11:47:00,85.7,34.3,29.37,NNW,337,0.0,4.0,16,0.00,,,0.00,Wunderground v.1.15,2013-06-24 17:47:00,
2013-06-24 11:54:00,86.1,31.3,29.37,NNW,337,0.0,2.0,14,0.00,,,0.00,Wunderground v.1.15,2013-06-24 17:54:00,
2013-06-24 11:59:00,85.5,30.8,29.37,NNW,337,0.0,6.0,14,0.00,,,0.00,Wunderground v.1.15,2013-06-24 17:59:00,
2013-06-24 12:05:00,84.5,31.8,29.38,NNW,337,0.0,6.0,15,0.00,,,0.00,Wunderground v.1.15,2013-06-24 18:05:00,
2013-06-24 12:10:00,84.5,30.1,29.38,NNW,337,0.0,6.0,14,0.00,,,0.00,Wunderground v.1.15,2013-06-24 18:10:00,
2013-06-24 12:15:00,85.3,28.9,29.38,NNW,339,4.0,4.0,13,0.00,,,0.00,Wunderground v.1.15,2013-06-24 18:15:00,
2013-06-24 12:20:00,85.5,29.0,29.38,NNW,339,1.0,4.0,13,0.00,,,0.00,Wunderground v.1.15,2013-06-24 18:20:00,
2013-06-24 12:25:00,86.1,29.5,29.38,NNW,339,0.0,2.0,13,0.00,,,0.00,Wunderground v.1.15,2013-06-24 18:25:00,
2013-06-24 12:30:00,86.3,27.7,29.38,WSW,256,4.0,10.0,12,0.00,,,0.00,Wunderground v.1.15,2013-06-24 18:30:00,
2013-06-24 12:36:00,87.2,30.4,29.37,WNW,296,7.0,10.0,13,0.00,,,0.00,Wunderground v.1.15,2013-06-24 18:36:00,
2013-06-24 12:42:00,87.2,30.4,29.37,West,281,0.0,10.0,13,0.00,,,0.00,Wunderground v.1.15,2013-06-24 18:42:00,
2013-06-24 12:47:00,87.2,26.3,29.37,West,271,6.0,10.0,11,0.00,,,0.00,Wunderground v.1.15,2013-06-24 18:47:00,
2013-06-24 12:52:00,87.6,26.6,29.37,WSW,253,6.0,8.0,11,0.00,,,0.00,Wunderground v.1.15,2013-06-24 18:52:00,
2013-06-24 12:58:00,88.0,26.9,29.37,West,271,1.0,15.0,11,0.00,,,0.00,Wunderground v.1.15,2013-06-24 18:58:00,
2013-06-24 13:03:00,88.6,27.3,29.35,WSW,250,4.0,4.0,11,0.00,,,0.00,Wunderground v.1.15,2013-06-24 19:03:00,
2013-06-24 13:08:00,89.9,28.3,29.35,West,274,2.0,8.0,11,0.00,,,0.00,Wunderground v.1.15,2013-06-24 19:08:00,
2013-06-24 13:13:00,89.7,28.2,29.35,WSW,243,6.0,8.0,11,0.00,,,0.00,Wunderground v.1.15,2013-06-24 19:13:00,
2013-06-24 13:19:00,88.8,25.2,29.35,SW,233,0.0,8.0,10,0.00,,,0.00,Wunderground v.1.15,2013-06-24 19:19:00,
2013-06-24 13:24:00,87.8,21.9,29.35,WSW,251,1.0,9.0,9,0.00,,,0.00,Wunderground v.1.15,2013-06-24 19:24:00,
2013-06-24 13:29:00,88.4,27.2,29.35,SE,140,0.0,9.0,11,0.00,,,0.00,Wunderground v.1.15,2013-06-24 19:29:00,
2013-06-24 13:34:00,88.2,24.7,29.35,WSW,251,6.0,10.0,10,0.00,,,0.00,Wunderground v.1.15,2013-06-24 19:34:00,
2013-06-24 13:40:00,87.4,26.4,29.35,SSE,157,0.0,10.0,11,0.00,,,0.00,Wunderground v.1.15,2013-06-24 19:40:00,
2013-06-24 13:45:00,86.5,25.7,29.35,WSW,258,0.0,6.0,11,0.00,,,0.00,Wunderground v.1.15,2013-06-24 19:45:00,
2013-06-24 13:50:00,85.7,29.2,29.37,WSW,254,0.0,2.0,13,0.00,,,0.00,Wunderground v.1.15,2013-06-24 19:50:00,
2013-06-24 13:56:00,87.0,28.2,29.37,WSW,246,4.0,6.0,12,0.00,,,0.00,Wunderground v.1.15,2013-06-24 19:56:00,
2013-06-24 14:01:00,86.5,25.7,29.37,SW,219,6.0,6.0,11,0.00,,,0.00,Wunderground v.1.15,2013-06-24 20:01:00,
2013-06-24 14:06:00,85.5,25.0,29.37,SW,227,0.0,16.0,11,0.00,,,0.00,Wunderground v.1.15,2013-06-24 20:06:00,
2013-06-24 14:11:00,85.1,24.7,29.37,SSE,148,4.0,4.0,11,0.00,,,0.00,Wunderground v.1.15,2013-06-24 20:11:00,
2013-06-24 14:16:00,85.3,26.9,29.37,SSE,157,2.0,4.0,12,0.00,,,0.00,Wunderground v.1.15,2013-06-24 20:16:00,
2013-06-24 14:22:00,86.1,25.4,29.37,SSE,157,6.0,14.0,11,0.00,,,0.00,Wunderground v.1.15,2013-06-24 20:22:00,
2013-06-24 14:27:00,87.4,26.4,29.37,WSW,251,14.0,14.0,11,0.00,,,0.00,Wunderground v.1.15,2013-06-24 20:27:00,
2013-06-24 14:32:00,87.4,26.4,29.37,WSW,246,7.0,7.0,11,0.00,,,0.00,Wunderground v.1.15,2013-06-24 20:32:00,
2013-06-24 14:37:00,88.2,27.0,29.35,SE,124,14.0,14.0,11,0.00,,,0.00,Wunderground v.1.15,2013-06-24 20:37:00,
2013-06-24 14:43:00,89.0,27.7,29.35,SSE,155,2.0,6.0,11,0.00,,,0.00,Wunderground v.1.15,2013-06-24 20:43:00,
2013-06-24 14:48:00,89.3,27.9,29.34,West,260,14.0,14.0,11,0.00,,,0.00,Wunderground v.1.15,2013-06-24 20:48:00,
2013-06-24 14:53:00,88.4,24.9,29.34,WSW,253,8.0,13.0,10,0.00,,,0.00,Wunderground v.1.15,2013-06-24 20:53:00,
2013-06-24 14:58:00,88.4,27.2,29.34,WSW,244,0.0,13.0,11,0.00,,,0.00,Wunderground v.1.15,2013-06-24 20:58:00,
2013-06-24 15:03:00,89.0,27.7,29.35,SSW,198,4.0,13.0,11,0.00,,,0.00,Wunderground v.1.15,2013-06-24 21:03:00,
2013-06-24 15:08:00,89.3,23.0,29.35,SSW,195,0.0,13.0,9,0.00,,,0.00,Wunderground v.1.15,2013-06-24 21:08:00,
2013-06-24 15:13:00,88.8,25.2,29.35,SE,144,10.0,10.0,10,0.00,,,0.00,Wunderground v.1.15,2013-06-24 21:13:00,
2013-06-24 15:18:00,86.3,23.3,29.38,SE,138,9.0,15.0,10,0.00,,,0.00,Wunderground v.1.15,2013-06-24 21:18:00,
2013-06-24 15:23:00,85.5,22.7,29.38,SSE,167,4.0,8.0,10,0.00,,,0.00,Wunderground v.1.15,2013-06-24 21:23:00,
2013-06-24 15:29:00,85.1,22.4,29.38,SSE,151,6.0,8.0,10,0.00,,,0.00,Wunderground v.1.15,2013-06-24 21:29:00,
2013-06-24 15:34:00,86.7,25.9,29.37,WSW,247,1.0,7.0,11,0.00,,,0.00,Wunderground v.1.15,2013-06-24 21:34:00,
2013-06-24 15:39:00,88.2,22.2,29.37,West,275,8.0,8.0,9,0.00,,,0.00,Wunderground v.1.15,2013-06-24 21:39:00,
2013-06-24 15:44:00,89.5,23.2,29.37,SE,126,1.0,10.0,9,0.00,,,0.00,Wunderground v.1.15,2013-06-24 21:44:00,
2013-06-24 15:50:00,88.6,22.5,29.36,SE,130,2.0,10.0,9,0.00,,,0.00,Wunderground v.1.15,2013-06-24 21:50:00,
2013-06-24 15:55:00,88.2,22.2,29.36,WSW,250,0.0,13.0,9,0.00,,,0.00,Wunderground v.1.15,2013-06-24 21:55:00,
2013-06-24 16:00:00,88.4,22.4,29.36,SW,219,0.0,13.0,9,0.00,,,0.00,Wunderground v.1.15,2013-06-24 22:00:00,
2013-06-24 16:05:00,88.0,22.1,29.36,West,270,2.0,6.0,9,0.00,,,0.00,Wunderground v.1.15,2013-06-24 22:05:00,
2013-06-24 16:12:00,88.8,22.7,29.36,WSW,254,0.0,9.0,9,0.00,,,0.00,Wunderground v.1.15,2013-06-24 22:12:00,
2013-06-24 16:17:00,88.6,22.5,29.36,West,265,1.0,9.0,9,0.00,,,0.00,Wunderground v.1.15,2013-06-24 22:17:00,
2013-06-24 16:22:00,87.2,21.5,29.37,SSE,154,1.0,6.0,9,0.00,,,0.00,Wunderground v.1.15,2013-06-24 22:22:00,
2013-06-24 16:27:00,87.2,24.0,29.37,SSE,148,4.0,9.0,10,0.00,,,0.00,Wunderground v.1.15,2013-06-24 22:27:00,
2013-06-24 16:33:00,87.2,18.7,29.38,SE,145,0.0,2.0,8,0.00,,,0.00,Wunderground v.1.15,2013-06-24 22:33:00,
2013-06-24 16:38:00,89.3,20.3,29.38,WSW,250,1.0,4.0,8,0.00,,,0.00,Wunderground v.1.15,2013-06-24 22:38:00,
2013-06-24 16:43:00,89.5,17.3,29.38,South,172,1.0,4.0,7,0.00,,,0.00,Wunderground v.1.15,2013-06-24 22:43:00,
2013-06-24 16:48:00,89.5,20.4,29.36,South,178,0.0,4.0,8,0.00,,,0.00,Wunderground v.1.15,2013-06-24 22:48:00,
2013-06-24 16:54:00,89.3,20.3,29.36,SSE,148,1.0,6.0,8,0.00,,,0.00,Wunderground v.1.15,2013-06-24 22:54:00,
2013-06-24 16:59:00,89.5,23.2,29.36,West,277,1.0,13.0,9,0.00,,,0.00,Wunderground v.1.15,2013-06-24 22:59:00,
2013-06-24 17:04:00,89.5,23.2,29.36,West,261,10.0,15.0,9,0.00,,,0.00,Wunderground v.1.15,2013-06-24 23:04:00,
2013-06-24 17:09:00,87.8,21.9,29.36,WSW,244,2.0,20.0,9,0.00,,,0.00,Wunderground v.1.15,2013-06-24 23:09:00,
2013-06-24 17:14:00,87.6,21.8,29.36,SSE,168,0.0,14.0,9,0.00,,,0.00,Wunderground v.1.15,2013-06-24 23:14:00,
2013-06-24 17:19:00,88.2,22.2,29.37,SSE,150,6.0,14.0,9,0.00,,,0.00,Wunderground v.1.15,2013-06-24 23:19:00,
2013-06-24 17:24:00,87.4,21.6,29.37,SSE,162,4.0,10.0,9,0.00,,,0.00,Wunderground v.1.15,2013-06-24 23:24:00,
2013-06-24 17:30:00,85.9,20.5,29.37,SE,137,0.0,15.0,9,0.00,,,0.00,Wunderground v.1.15,2013-06-24 23:30:00,
2013-06-24 17:35:00,85.9,23.0,29.38,SE,144,2.0,8.0,10,0.00,,,0.00,Wunderground v.1.15,2013-06-24 23:35:00,
2013-06-24 17:40:00,87.0,23.8,29.38,WSW,237,1.0,2.0,10,0.00,,,0.00,Wunderground v.1.15,2013-06-24 23:40:00,
2013-06-24 17:45:00,87.2,24.0,29.38,WSW,254,8.0,9.0,10,0.00,,,0.00,Wunderground v.1.15,2013-06-24 23:45:00,
2013-06-24 17:50:00,87.0,23.8,29.36,WNW,282,4.0,15.0,10,0.00,,,0.00,Wunderground v.1.15,2013-06-24 23:50:00,
2013-06-24 17:55:00,87.0,23.8,29.36,WSW,244,2.0,15.0,10,0.00,,,0.00,Wunderground v.1.15,2013-06-24 23:55:00,
2013-06-24 18:01:00,87.0,23.8,29.36,West,260,4.0,5.0,10,0.00,,,0.00,Wunderground v.1.15,2013-06-25 00:01:00,
2013-06-24 18:06:00,87.4,24.1,29.36,SW,229,7.0,8.0,10,0.00,,,0.00,Wunderground v.1.15,2013-06-25 00:06:00,
2013-06-24 18:12:00,86.7,23.6,29.36,West,261,6.0,6.0,10,0.00,,,0.00,Wunderground v.1.15,2013-06-25 00:12:00,
2013-06-24 18:17:00,86.7,23.6,29.36,WSW,254,6.0,10.0,10,0.00,,,0.00,Wunderground v.1.15,2013-06-25 00:17:00,
2013-06-24 18:22:00,86.1,23.1,29.35,West,265,6.0,7.0,10,0.00,,,0.00,Wunderground v.1.15,2013-06-25 00:22:00,
2013-06-24 18:27:00,85.5,22.7,29.35,West,263,0.0,7.0,10,0.00,,,0.00,Wunderground v.1.15,2013-06-25 00:27:00,
2013-06-24 18:33:00,84.9,19.7,29.35,WSW,246,1.0,6.0,9,0.00,,,0.00,Wunderground v.1.15,2013-06-25 00:33:00,
2013-06-24 18:38:00,84.7,22.1,29.35,WSW,253,7.0,8.0,10,0.00,,,0.00,Wunderground v.1.15,2013-06-25 00:38:00,
2013-06-24 18:43:00,84.3,21.8,29.35,West,270,6.0,9.0,10,0.00,,,0.00,Wunderground v.1.15,2013-06-25 00:43:00,
2013-06-24 18:49:00,84.1,21.6,29.36,WSW,247,1.0,9.0,10,0.00,,,0.00,Wunderground v.1.15,2013-06-25 00:49:00,
2013-06-24 18:54:00,84.1,21.6,29.36,WSW,258,0.0,10.0,10,0.00,,,0.00,Wunderground v.1.15,2013-06-25 00:54:00,
2013-06-24 19:00:00,84.1,21.6,29.36,SW,233,2.0,10.0,10,0.00,,,0.00,Wunderground v.1.15,2013-06-25 01:00:00,
2013-06-24 19:05:00,84.0,21.5,29.37,WSW,250,7.0,7.0,10,0.00,,,0.00,Wunderground v.1.15,2013-06-25 01:05:00,
2013-06-24 19:10:00,83.8,21.4,29.37,West,270,14.0,14.0,10,0.00,,,0.00,Wunderground v.1.15,2013-06-25 01:10:00,
2013-06-24 19:15:00,83.6,21.2,29.37,West,278,4.0,14.0,10,0.00,,,0.00,Wunderground v.1.15,2013-06-25 01:15:00,
2013-06-24 19:20:00,83.4,21.1,29.32,West,264,0.0,3.0,10,0.00,,,0.00,Wunderground v.1.15,2013-06-25 01:20:00,
2013-06-24 19:25:00,83.2,20.9,29.32,SSW,209,0.0,10.0,10,0.00,,,0.00,Wunderground v.1.15,2013-06-25 01:25:00,
2013-06-24 19:31:00,83.0,20.8,29.32,West,261,0.0,2.0,10,0.00,,,0.00,Wunderground v.1.15,2013-06-25 01:31:00,
2013-06-24 19:36:00,83.0,20.8,29.32,West,270,0.0,2.0,10,0.00,,,0.00,Wunderground v.1.15,2013-06-25 01:36:00,
2013-06-24 19:41:00,82.6,20.5,29.32,West,268,0.0,1.0,10,0.00,,,0.00,Wunderground v.1.15,2013-06-25 01:41:00,
2013-06-24 19:47:00,82.2,22.4,29.33,West,268,0.0,1.0,11,0.00,,,0.00,Wunderground v.1.15,2013-06-25 01:47:00,
2013-06-24 19:52:00,81.8,22.1,29.33,SSW,193,0.0,2.0,11,0.00,,,0.00,Wunderground v.1.15,2013-06-25 01:52:00,
2013-06-24 19:57:00,81.4,21.8,29.33,SSW,193,0.0,2.0,11,0.00,,,0.00,Wunderground v.1.15,2013-06-25 01:57:00,
2013-06-24 20:03:00,81.1,21.6,29.33,SSW,193,0.0,0.0,11,0.00,,,0.00,Wunderground v.1.15,2013-06-25 02:03:00,
2013-06-24 20:08:00,80.3,23.0,29.33,SSW,193,0.0,0.0,12,0.00,,,0.00,Wunderground v.1.15,2013-06-25 02:08:00,
2013-06-24 20:13:00,79.4,26.0,29.33,SSW,193,1.0,1.0,14,0.00,,,0.00,Wunderground v.1.15,2013-06-25 02:13:00,
2013-06-24 20:19:00,78.6,23.6,29.32,SSW,193,0.0,1.0,13,0.00,,,0.00,Wunderground v.1.15,2013-06-25 02:19:00,
2013-06-24 20:24:00,78.1,23.2,29.32,SSW,193,0.0,0.0,13,0.00,,,0.00,Wunderground v.1.15,2013-06-25 02:24:00,
2013-06-24 20:29:00,77.9,23.1,29.32,SSW,193,0.0,0.0,13,0.00,,,0.00,Wunderground v.1.15,2013-06-25 02:29:00,
2013-06-24 20:34:00,77.7,21.0,29.33,South,169,0.0,4.0,12,0.00,,,0.00,Wunderground v.1.15,2013-06-25 02:34:00,
2013-06-24 20:39:00,77.6,20.9,29.33,South,169,0.0,4.0,12,0.00,,,0.00,Wunderground v.1.15,2013-06-25 02:39:00,
2013-06-24 20:44:00,77.2,20.6,29.33,South,169,0.0,0.0,12,0.00,,,0.00,Wunderground v.1.15,2013-06-25 02:44:00,
2013-06-24 20:49:00,77.0,20.5,29.34,South,169,0.0,2.0,12,0.00,,,0.00,Wunderground v.1.15,2013-06-25 02:49:00,
2013-06-24 20:55:00,76.8,20.3,29.34,South,169,0.0,0.0,12,0.00,,,0.00,Wunderground v.1.15,2013-06-25 02:55:00,
2013-06-24 21:00:00,76.7,20.2,29.34,South,169,1.0,1.0,12,0.00,,,0.00,Wunderground v.1.15,2013-06-25 03:00:00,
2013-06-24 21:05:00,76.5,20.1,29.35,South,171,0.0,1.0,12,0.00,,,0.00,Wunderground v.1.15,2013-06-25 03:05:00,
2013-06-24 21:10:00,76.5,20.1,29.35,South,171,0.0,0.0,12,0.00,,,0.00,Wunderground v.1.15,2013-06-25 03:10:00,
2013-06-24 21:16:00,76.5,20.1,29.35,SSE,165,0.0,1.0,12,0.00,,,0.00,Wunderground v.1.15,2013-06-25 03:16:00,
2013-06-24 21:21:00,76.5,20.1,29.32,SSE,155,0.0,1.0,12,0.00,,,0.00,Wunderground v.1.15,2013-06-25 03:21:00,
2013-06-24 21:28:00,76.5,20.1,29.32,SSE,164,1.0,1.0,12,0.00,,,0.00,Wunderground v.1.15,2013-06-25 03:28:00,
2013-06-24 21:34:00,76.7,20.2,29.33,SE,143,0.0,1.0,12,0.00,,,0.00,Wunderground v.1.15,2013-06-25 03:34:00,
2013-06-24 21:39:00,76.5,20.1,29.33,SSW,196,0.0,2.0,12,0.00,,,0.00,Wunderground v.1.15,2013-06-25 03:39:00,
2013-06-24 21:44:00,76.5,22.0,29.33,SSE,157,0.0,8.0,13,0.00,,,0.00,Wunderground v.1.15,2013-06-25 03:44:00,
2013-06-24 21:49:00,76.3,21.8,29.35,SSE,155,0.0,8.0,13,0.00,,,0.00,Wunderground v.1.15,2013-06-25 03:49:00,
2013-06-24 21:54:00,76.3,21.8,29.35,SSE,155,0.0,7.0,13,0.00,,,0.00,Wunderground v.1.15,2013-06-25 03:54:00,
2013-06-24 21:59:00,76.3,21.8,29.35,SSE,154,4.0,7.0,13,0.00,,,0.00,Wunderground v.1.15,2013-06-25 03:59:00,
2013-06-24 22:01:00,76.3,21.8,29.35,SSE,152,2.0,2.0,13,0.00,,,0.00,Wunderground v.1.15,2013-06-25 04:01:00,
2013-06-24 22:02:00,76.5,22.0,29.34,SSE,152,0.0,2.0,13,0.00,,,0.00,Wunderground v.1.15,2013-06-25 04:02:00,
2013-06-24 22:03:00,76.5,22.0,29.34,SSE,148,2.0,2.0,13,0.00,,,0.00,Wunderground v.1.15,2013-06-25 04:03:00,
2013-06-24 22:08:00,76.8,22.2,29.34,SE,133,7.0,7.0,13,0.00,,,0.00,Wunderground v.1.15,2013-06-25 04:08:00,
2013-06-24 22:13:00,77.0,22.4,29.34,SSE,155,4.0,7.0,13,0.00,,,0.00,Wunderground v.1.15,2013-06-25 04:13:00,
2013-06-24 22:18:00,77.2,22.5,29.31,SSE,164,1.0,9.0,13,0.00,,,0.00,Wunderground v.1.15,2013-06-25 04:18:00,
2013-06-24 22:23:00,77.4,22.7,29.31,SSE,155,0.0,4.0,13,0.00,,,0.00,Wunderground v.1.15,2013-06-25 04:23:00,
2013-06-24 22:28:00,77.4,22.7,29.31,SSE,168,2.0,7.0,13,0.00,,,0.00,Wunderground v.1.15,2013-06-25 04:28:00,
2013-06-24 22:34:00,77.6,22.8,29.30,South,174,0.0,1.0,13,0.00,,,0.00,Wunderground v.1.15,2013-06-25 04:34:00,
2013-06-24 22:39:00,77.7,22.9,29.30,East,95,0.0,7.0,13,0.00,,,0.00,Wunderground v.1.15,2013-06-25 04:39:00,
2013-06-24 22:44:00,77.4,22.7,29.30,NW,319,0.0,7.0,13,0.00,,,0.00,Wunderground v.1.15,2013-06-25 04:44:00,
2013-06-24 22:49:00,77.4,22.7,29.30,SSE,167,6.0,7.0,13,0.00,,,0.00,Wunderground v.1.15,2013-06-25 04:49:00,
2013-06-24 22:54:00,77.2,22.5,29.30,East,96,0.0,6.0,13,0.00,,,0.00,Wunderground v.1.15,2013-06-25 04:54:00,
2013-06-24 22:59:00,77.2,22.5,29.30,East,99,0.0,6.0,13,0.00,,,0.00,Wunderground v.1.15,2013-06-25 04:59:00,
2013-06-24 23:04:00,77.2,22.5,29.30,SE,137,1.0,4.0,13,0.00,,,0.00,Wunderground v.1.15,2013-06-25 05:04:00,
2013-06-24 23:09:00,77.4,22.7,29.30,SE,124,0.0,6.0,13,0.00,,,0.00,Wunderground v.1.15,2013-06-25 05:09:00,
2013-06-24 23:14:00,77.2,22.5,29.30,South,174,4.0,14.0,13,0.00,,,0.00,Wunderground v.1.15,2013-06-25 05:14:00,
2013-06-24 23:20:00,77.6,22.8,29.30,SSE,161,4.0,14.0,13,0.00,,,0.00,Wunderground v.1.15,2013-06-25 05:20:00,
2013-06-24 23:25:00,77.6,22.8,29.30,SW,226,8.0,8.0,13,0.00,,,0.00,Wunderground v.1.15,2013-06-25 05:25:00,
2013-06-24 23:30:00,77.2,24.3,29.30,WSW,247,1.0,3.0,14,0.00,,,0.00,Wunderground v.1.15,2013-06-25 05:30:00,
2013-06-24 23:35:00,76.8,24.0,29.31,SW,230,0.0,10.0,14,0.00,,,0.00,Wunderground v.1.15,2013-06-25 05:35:00,
2013-06-24 23:40:00,76.5,25.4,29.31,WSW,247,0.0,4.0,15,0.00,,,0.00,Wunderground v.1.15,2013-06-25 05:40:00,
2013-06-24 23:45:00,76.3,26.8,29.31,SSE,154,0.0,7.0,16,0.00,,,0.00,Wunderground v.1.15,2013-06-25 05:45:00,
2013-06-24 23:50:00,76.3,26.8,29.33,WSW,253,2.0,10.0,16,0.00,,,0.00,Wunderground v.1.15,2013-06-25 05:50:00,
2013-06-24 23:55:00,76.3,26.8,29.33,WSW,247,15.0,15.0,16,0.00,,,0.00,Wunderground v.1.15,2013-06-25 05:55:00,